Location: Unspecified
(47.4992°N, 121.7766°W)
Time: 17:50:05
(UTC-07:00)

ISS - Pass Details

Date: 25 April 2024
Orbit: 409 x 414 km, 51.6° (Epoch: 20 May)

Event Time Altitude Azimuth Distance (km) Brightness Sun altitude
Exits shadow 03:23:44 13° 119° (ESE) 1,330 -1.2 -21.7°
Drops below altitude 10° 03:24:37 10° 104° (ESE) 1,476 -0.7 -21.6°
Sets 03:27:30 0° 76° (ENE) 2,341 0.8 -21.3°
